TimeCDT,TemperatureF,Dew PointF,Humidity,Sea Level PressureIn,VisibilityMPH,Wind Direction,Wind SpeedMPH,Gust SpeedMPH,PrecipitationIn,Events,Conditions,WindDirDegrees,DateUTC
12:52 AM,36.0,28.9,76,30.14,10.0,East,8.1,-,N/A,,Overcast,90,2012-11-03 05:52:00
1:52 AM,39.0,28.9,67,30.12,10.0,East,11.5,-,N/A,,Overcast,80,2012-11-03 06:52:00
2:52 AM,37.9,30.9,76,30.12,10.0,East,10.4,-,N/A,,Overcast,80,2012-11-03 07:52:00
3:52 AM,39.0,32.0,76,30.12,10.0,East,9.2,-,N/A,,Overcast,90,2012-11-03 08:52:00
4:52 AM,39.0,32.0,76,30.14,10.0,East,8.1,-,N/A,,Overcast,80,2012-11-03 09:52:00
5:52 AM,39.0,32.0,76,30.14,10.0,East,8.1,-,N/A,,Overcast,90,2012-11-03 10:52:00
6:52 AM,39.0,32.0,76,30.15,10.0,East,8.1,-,N/A,,Overcast,80,2012-11-03 11:52:00
7:52 AM,39.0,32.0,76,30.18,10.0,NE,6.9,-,N/A,,Overcast,40,2012-11-03 12:52:00
8:52 AM,39.0,33.1,79,30.21,10.0,ENE,6.9,-,N/A,,Overcast,60,2012-11-03 13:52:00
9:52 AM,41.0,33.1,73,30.22,10.0,ENE,6.9,-,N/A,,Overcast,70,2012-11-03 14:52:00
10:52 AM,43.0,33.1,68,30.22,10.0,East,10.4,-,N/A,,Overcast,80,2012-11-03 15:52:00
11:52 AM,45.0,34.0,65,30.21,10.0,East,10.4,16.1,N/A,,Overcast,90,2012-11-03 16:52:00
12:52 PM,46.0,34.0,63,30.19,10.0,ENE,8.1,-,N/A,,Overcast,70,2012-11-03 17:52:00
1:52 PM,48.0,34.0,58,30.18,10.0,NE,4.6,-,N/A,,Scattered Clouds,40,2012-11-03 18:52:00
2:52 PM,48.0,33.1,56,30.18,10.0,ENE,8.1,-,N/A,,Overcast,70,2012-11-03 19:52:00
3:52 PM,46.9,33.1,59,30.19,10.0,ENE,8.1,-,N/A,,Overcast,70,2012-11-03 20:52:00
4:52 PM,46.9,33.1,59,30.19,10.0,NE,6.9,-,N/A,,Overcast,50,2012-11-03 21:52:00
5:52 PM,44.1,30.9,60,30.20,10.0,ENE,5.8,-,N/A,,Scattered Clouds,60,2012-11-03 22:52:00
6:52 PM,39.9,30.9,70,30.21,10.0,Calm,Calm,-,N/A,,Mostly Cloudy,0,2012-11-03 23:52:00
7:52 PM,36.0,30.0,79,30.22,10.0,Calm,Calm,-,N/A,,Partly Cloudy,0,2012-11-04 00:52:00
8:52 PM,35.1,28.9,78,30.22,10.0,Calm,Calm,-,N/A,,Clear,0,2012-11-04 01:52:00
9:52 PM,32.0,28.0,85,30.23,10.0,Calm,Calm,-,N/A,,Clear,0,2012-11-04 02:52:00
10:52 PM,30.0,27.0,88,30.24,9.0,Calm,Calm,-,N/A,,Clear,0,2012-11-04 03:52:00
11:52 PM,28.9,26.1,89,30.23,8.0,Calm,Calm,-,N/A,,Clear,0,2012-11-04 04:52:00